| time (UTC) | temp C | wind direction | speed KPH | gust KPH | rain 1hr cm | rain 24hr cm | rain mn cm | humidity % | barometer mb |
| 20260904190017 | 28 | 273 | 0.0 | 4.8 | 0.00 | 0.00 | 0.00 | 52 | 1017.2 |
| 20260904184526 | 28 | 265 | 3.2 | 9.7 | 0.00 | 0.00 | 0.00 | 53 | 1017.1 |
| 20260904183030 | 28 | 277 | 6.4 | 11.3 | 0.00 | 0.00 | 0.00 | 55 | 1017.1 |
| 20260904181537 | 30 | 235 | 4.8 | 12.9 | 0.00 | 0.00 | 0.00 | 48 | 1017.0 |
| 20260904180046 | 32 | 281 | 12.9 | 20.9 | 0.00 | 0.00 | 0.00 | 36 | 1017.0 |
| 20260904174520 | 32 | 315 | 11.3 | 17.7 | 0.00 | 0.00 | 0.00 | 39 | 1017.0 |
| 20260904173036 | 31 | 300 | 16.1 | 22.5 | 0.00 | 0.00 | 0.00 | 41 | 1017.1 |
| 20260904171600 | 30 | 333 | 8.0 | 17.7 | 0.00 | 0.00 | 0.00 | 47 | 1017.2 |
| 20260904170012 | 30 | 322 | 11.3 | 17.7 | 0.00 | 0.00 | 0.00 | 48 | 1017.3 |
| 20260904164518 | 29 | 308 | 8.0 | 19.3 | 0.00 | 0.00 | 0.00 | 53 | 1017.3 |
| 20260904163026 | 28 | 327 | 9.7 | 22.5 | 0.00 | 0.00 | 0.00 | 61 | 1017.7 |
| 20260904161529 | 27 | 338 | 14.5 | 25.7 | 0.00 | 0.00 | 0.00 | 67 | 1017.7 |
| 20260904160016 | 26 | 345 | 17.7 | 24.1 | 0.00 | 0.00 | 0.00 | 71 | 1018.4 |
| 20260904154532 | 25 | 360 | 16.1 | 22.5 | 0.00 | 0.00 | 0.00 | 76 | 1019.0 |
| 20260904153030 | 24 | 46 | 6.4 | 12.9 | 0.00 | 0.00 | 0.00 | 82 | 1019.6 |
| 20260904151533 | 23 | 327 | 6.4 | 14.5 | 0.00 | 0.00 | 0.00 | 85 | 1019.6 |
| 20260904150031 | 22 | 261 | 3.2 | 6.4 | 0.00 | 0.00 | 0.00 | 87 | 1019.7 |
| 20260904144514 | 22 | 271 | 4.8 | 14.5 | 0.00 | 0.00 | 0.00 | 87 | 1019.5 |
| 20260904143020 | 22 | 228 | 4.8 | 9.7 | 0.00 | 0.00 | 0.00 | 86 | 1019.1 |
| 20260904141526 | 23 | 248 | 9.7 | 19.3 | 0.00 | 0.00 | 0.00 | 81 | 1019.5 |
| 20260904140036 | 25 | 234 | 4.8 | 14.5 | 0.00 | 0.00 | 0.00 | 74 | 1020.9 |
| 20260904134514 | 25 | 119 | 9.7 | 12.9 | 0.00 | 0.00 | 0.00 | 72 | 1021.9 |
| 20260904133018 | 25 | 151 | 3.2 | 12.9 | 0.00 | 0.00 | 0.00 | 72 | 1020.8 |
| 20260904131523 | 26 | 278 | 8.0 | 19.3 | 0.00 | 0.00 | 0.00 | 71 | 1019.7 |
| 20260904130026 | 27 | 157 | 0.0 | 6.4 | 0.00 | 0.00 | 0.00 | 65 | 1020.0 |
| 20260904124531 | 27 | 167 | 4.8 | 9.7 | 0.00 | 0.00 | 0.00 | 67 | 1020.7 |
| 20260904123016 | 27 | 228 | 6.4 | 11.3 | 0.00 | 0.00 | 0.00 | 65 | 1020.2 |
| 20260904121527 | 28 | 104 | 8.0 | 14.5 | 0.00 | 0.00 | 0.00 | 60 | 1021.0 |
| 20260904120038 | 29 | 97 | 0.0 | 4.8 | 0.00 | 0.00 | 0.00 | 59 | 1020.3 |
| 20260904114529 | 29 | 173 | 1.6 | 8.0 | 0.00 | 0.00 | 0.00 | 58 | 1020.4 |
| 20260904113036 | 29 | 227 | 4.8 | 6.4 | 0.00 | 0.00 | 0.00 | 59 | 1019.6 |
| 20260904111519 | 29 | 64 | 0.0 | 14.5 | 0.00 | 0.00 | 0.00 | 58 | 1020.1 |
| 20260904110027 | 30 | 316 | 1.6 | 6.4 | 0.00 | 0.00 | 0.00 | 56 | 1020.1 |
| 20260904104547 | 28 | 225 | 0.0 | 6.4 | 0.00 | 0.00 | 0.00 | 62 | 1019.9 |
| 20260904103031 | 28 | 334 | 0.0 | 11.3 | 0.00 | 0.00 | 0.00 | 62 | 1020.4 |
| 20260904101529 | 27 | 244 | 8.0 | 14.5 | 0.00 | 0.00 | 0.00 | 63 | 1020.0 |
| 20260904100024 | 27 | 120 | 3.2 | 11.3 | 0.00 | 0.00 | 0.00 | 64 | 1020.5 |
| 20260904094540 | 27 | 338 | 1.6 | 3.2 | 0.00 | 0.00 | 0.00 | 66 | 1019.9 |
| 20260904093033 | 26 | 11 | 0.0 | 4.8 | 0.00 | 0.00 | 0.00 | 69 | 1019.7 |
| 20260904091535 | 25 | 15 | 8.0 | 20.9 | 0.00 | 0.00 | 0.00 | 1019.4 | |
| 20260904090021 | 24 | 318 | 12.9 | 25.7 | 0.00 | 0.00 | 0.00 | 71 | 1018.8 |
| 20260904084530 | 23 | 309 | 9.7 | 17.7 | 0.00 | 0.00 | 0.00 | 72 | 1019.1 |
| 20260904083030 | 23 | 317 | 6.4 | 8.0 | 0.00 | 0.00 | 0.00 | 70 | 1019.8 |
| 20260904081532 | 23 | 93 | 0.0 | 4.8 | 0.00 | 0.00 | 0.00 | 70 | 1020.3 |
| 20260904080023 | 23 | 136 | 1.6 | 11.3 | 0.00 | 0.00 | 0.00 | 72 | 1020.4 |
| 20260904074526 | 22 | 103 | 9.7 | 12.9 | 0.00 | 0.00 | 0.00 | 75 | 1020.4 |
| 20260904073007 | 22 | 80 | 1.6 | 4.8 | 0.00 | 0.00 | 0.00 | 75 | 1020.4 |
| 20260904071512 | 22 | 90 | 0.0 | 12.9 | 0.00 | 0.00 | 0.00 | 75 | 1020.6 |
| 20260904070035 | 22 | 77 | 3.2 | 16.1 | 0.00 | 0.00 | 0.00 | 75 | 1020.0 |
| 20260904064525 | 22 | 47 | 4.8 | 17.7 | 0.00 | 0.00 | 0.00 | 76 | 1019.9 |
| 20260904063004 | 22 | 64 | 1.6 | 19.3 | 0.00 | 0.00 | 0.00 | 77 | 1019.9 |
| 20260904061510 | 22 | 107 | 6.4 | 11.3 | 0.00 | 0.00 | 0.00 | 77 | 1019.6 |
| 20260904060015 | 22 | 351 | 1.6 | 4.8 | 0.00 | 0.00 | 0.00 | 78 | 1019.6 |
| 20260904054525 | 22 | 23 | 3.2 | 9.7 | 0.00 | 0.00 | 0.00 | 76 | 1019.8 |
| 20260904053052 | 23 | 103 | 12.9 | 22.5 | 0.00 | 0.00 | 0.00 | 71 | 1020.6 |
| 20260904051506 | 23 | 144 | 3.2 | 9.7 | 0.00 | 0.00 | 0.00 | 70 | 1019.5 |
| 20260904050026 | 23 | 12 | 3.2 | 6.4 | 0.00 | 0.00 | 0.00 | 68 | 1019.0 |
| 20260904044522 | 23 | 9 | 1.6 | 8.0 | 0.00 | 0.00 | 0.00 | 68 | 1019.1 |
| 20260904043027 | 23 | 128 | 3.2 | 9.7 | 0.00 | 0.00 | 0.00 | 69 | 1018.8 |
| 20260904041534 | 22 | 352 | 3.2 | 11.3 | 0.00 | 0.00 | 0.00 | 70 | 1018.6 |
| 20260904040011 | 22 | 9 | 6.4 | 19.3 | 0.00 | 0.00 | 0.00 | 75 | 1018.3 |
| 20260904034517 | 21 | 351 | 11.3 | 14.5 | 0.00 | 0.00 | 0.00 | 77 | 1018.0 |
| 20260904033023 | 21 | 306 | 4.8 | 12.9 | 0.00 | 0.00 | 0.00 | 77 | 1018.3 |
| 20260904031530 | 21 | 329 | 3.2 | 8.0 | 0.00 | 0.00 | 0.00 | 76 | 1018.3 |
| 20260904030031 | 22 | 279 | 3.2 | 4.8 | 0.00 | 0.00 | 0.00 | 75 | 1018.4 |
| 20260904024516 | 22 | 275 | 1.6 | 6.4 | 0.00 | 0.00 | 0.00 | 73 | 1018.6 |
| 20260904023024 | 22 | 218 | 4.8 | 9.7 | 0.00 | 0.00 | 0.00 | 71 | 1018.5 |
| 20260904021527 | 23 | 155 | 6.4 | 12.9 | 0.00 | 0.00 | 0.00 | 70 | 1019.1 |
| 20260904020030 | 22 | 264 | 0.0 | 11.3 | 0.00 | 0.00 | 0.00 | 71 | 1019.1 |
| 20260904014513 | 23 | 161 | 1.6 | 8.0 | 0.00 | 0.00 | 0.00 | 69 | 1019.3 |
| 20260904013019 | 23 | 53 | 4.8 | 16.1 | 0.00 | 0.00 | 0.00 | 69 | 1019.3 |
| 20260904011532 | 22 | 64 | 6.4 | 19.3 | 0.00 | 0.00 | 0.00 | 72 | 1019.4 |
| 20260904010031 | 23 | 109 | 11.3 | 12.9 | 0.00 | 0.00 | 0.00 | 68 | 1019.9 |
| 20260904004535 | 23 | 94 | 3.2 | 17.7 | 0.00 | 0.00 | 0.00 | 68 | 1019.5 |
| 20260904003018 | 25 | 86 | 8.0 | 16.1 | 0.00 | 0.00 | 0.00 | 63 | 1019.5 |
| 20260904001528 | 25 | 46 | 8.0 | 12.9 | 0.00 | 0.00 | 0.00 | 60 | 1019.2 |
| 20260904000027 | 24 | 39 | 6.4 | 9.7 | 0.00 | 0.00 | 0.00 | 65 | 1019.3 |
| 20260903234532 | 24 | 62 | 3.2 | 9.7 | 0.00 | 0.00 | 0.00 | 66 | 1019.4 |
| 20260903233039 | 24 | 12 | 3.2 | 6.4 | 0.00 | 0.00 | 0.00 | 63 | 1019.5 |
| 20260903231523 | 23 | 343 | 3.2 | 9.7 | 0.00 | 0.00 | 0.00 | 67 | 1019.3 |
| 20260903230025 | 23 | 268 | 1.6 | 4.8 | 0.00 | 0.00 | 0.00 | 69 | 1019.3 |
| 20260903224539 | 23 | 242 | 0.0 | 6.4 | 0.00 | 0.00 | 0.00 | 68 | 1019.4 |
| 20260903223015 | 23 | 334 | 1.6 | 6.4 | 0.00 | 0.00 | 0.00 | 71 | 1019.5 |
| 20260903221516 | 22 | 328 | 4.8 | 14.5 | 0.00 | 0.00 | 0.00 | 76 | 1019.3 |
| 20260903220026 | 22 | 327 | 9.7 | 16.1 | 0.00 | 0.00 | 0.00 | 79 | 1019.3 |
| 20260903214531 | 22 | 288 | 4.8 | 6.4 | 0.00 | 0.00 | 0.00 | 79 | 1019.9 |
| 20260903213009 | 22 | 145 | 0.0 | 4.8 | 0.00 | 0.00 | 0.00 | 77 | 1020.3 |
| 20260903211513 | 23 | 141 | 3.2 | 11.3 | 0.00 | 0.00 | 0.00 | 76 | 1020.4 |
| 20260903210020 | 23 | 176 | 4.8 | 11.3 | 0.00 | 0.00 | 0.00 | 73 | 1020.1 |
| 20260903204526 | 23 | 181 | 1.6 | 4.8 | 0.00 | 0.00 | 0.00 | 73 | 1019.7 |
| 20260903203035 | 23 | 181 | 1.6 | 3.2 | 0.00 | 0.00 | 0.00 | 72 | 1019.4 |
| 20260903201514 | 23 | 181 | 1.6 | 4.8 | 0.00 | 0.00 | 0.00 | 72 | 1019.2 |
| 20260903200018 | 23 | 181 | 3.2 | 6.4 | 0.00 | 0.00 | 0.00 | 71 | 1019.0 |
| 20260903194537 | 23 | 285 | 0.0 | 4.8 | 0.00 | 0.00 | 0.00 | 73 | 1018.7 |
| 20260903193031 | 23 | 285 | 1.6 | 4.8 | 0.00 | 0.00 | 0.00 | 75 | 1018.4 |
| 20260903191532 | 23 | 260 | 1.6 | 4.8 | 0.00 | 0.00 | 0.00 | 76 | 1018.3 |